Tracking 18840 objects as of 18-November-2017
HD Live streaming from Space Station
objects crossing your sky now

COSMOS 1015

Track COSMOS 1015 now!
10-day predictions
COSMOS 1015 is classified as:


NORAD ID: 10932
Int'l Code: 1978-056C
Perigee: 1,481.1 km
Apogee: 1,522.9 km
Inclination: 74.0 °
Period: 115.9 minutes
Semi major axis: 7873 km
RCS: 0.7013 m2 (medium)
Launch date: June 7, 1978
Source: Commonwealth of Independent States (former USSR) (CIS)
Launch site: PLESETSK MISSILE AND SPACE COMPLEX (PKMTR)
aabbcc
Your satellite tracking list
Your tracking list is empty




NASA's NSSDC Master Catalog

Two Line Element Set (TLE):
1 10932U 78056C   17321.62461194 -.00000033 +00000-0 -12788-3 0  9995
2 10932 074.0286 064.9887 0026539 101.2489 002.6464 12.42772099789566
Source of the keplerian elements: AFSPC